When you browse on this site, cookies collect data to enhance your experience and personalize the content and advertising you see.
Visit our Privacy Policy to learn more. By continuing to use the site, you agree to this use of cookies and data.
  • In Romania
  • List of Countries
  • For 7 days
  • Water Temperature
  • Weather Map
  • Weather Widgets
  • user-avatar
    Login

    Hourly Weather Lahaur

    Today, 5 June, Friday

    Time Temperature Precipitation Wind Pressure Humidity
    00:00 +34°C° 0 mm 1 mps 733 mmHg 30%
    01:00 +34°C° 0 mm 1 mps 733 mmHg 31%
    02:00 +31°C° 0 mm 0 mps 733 mmHg 32%
    03:00 +33°C° 0.2 mm 1 mps 733 mmHg 34%
    04:00 +32°C° 0.2 mm 1 mps 733 mmHg 36%
    05:00 +31°C° 0 mm 3 mps 733 mmHg 45%
    06:00 +33°C° 0 mm 3 mps 734 mmHg 45%
    07:00 +34°C° 0 mm 3 mps 734 mmHg 44%
    08:00 +35°C° 0 mm 3 mps 735 mmHg 43%
    09:00 +36°C° 0 mm 3 mps 734 mmHg 38%
    10:00 +37°C° 0 mm 3 mps 734 mmHg 33%
    11:00 +39°C° 0 mm 3 mps 734 mmHg 28%
    12:00 +39°C° 0 mm 2 mps 734 mmHg 27%
    13:00 +39°C° 0 mm 2 mps 733 mmHg 26%
    14:00 +39°C° 0 mm 2 mps 733 mmHg 25%
    15:00 +39°C° 0 mm 2 mps 732 mmHg 25%
    16:00 +39°C° 0 mm 2 mps 732 mmHg 25%
    17:00 +39°C° 0 mm 2 mps 732 mmHg 25%
    18:00 +39°C° 0 mm 2 mps 732 mmHg 26%
    19:00 +38°C° 0 mm 2 mps 732 mmHg 28%
    20:00 +36°C° 0 mm 1 mps 732 mmHg 29%
    21:00 +36°C° 0 mm 2 mps 732 mmHg 30%
    22:00 +36°C° 0 mm 3 mps 732 mmHg 32%
    23:00 +35°C° 0 mm 3 mps 732 mmHg 33%

    Tomorrow, 6 June, Saturday

    Time Temperature Precipitation Wind Pressure Humidity
    00:00 +35°C° 0 mm 4 mps 732 mmHg 36%
    01:00 +34°C° 0 mm 4 mps 732 mmHg 38%
    02:00 +33°C° 0 mm 5 mps 732 mmHg 41%
    03:00 +33°C° 0.1 mm 4 mps 732 mmHg 44%
    04:00 +32°C° 0.1 mm 4 mps 733 mmHg 46%
    05:00 +30°C° 0.1 mm 3 mps 733 mmHg 49%
    06:00 +32°C° 0 mm 4 mps 734 mmHg 49%
    07:00 +33°C° 0 mm 4 mps 734 mmHg 48%
    08:00 +33°C° 0 mm 5 mps 734 mmHg 47%
    09:00 +34°C° 0.1 mm 5 mps 734 mmHg 45%
    10:00 +35°C° 0.1 mm 6 mps 735 mmHg 44%
    11:00 +36°C° 0.1 mm 6 mps 735 mmHg 42%
    12:00 +38°C° 0.1 mm 6 mps 734 mmHg 38%
    13:00 +39°C° 0.1 mm 5 mps 734 mmHg 35%
    14:00 +40°C° 0.1 mm 5 mps 733 mmHg 32%
    15:00 +40°C° 0 mm 4 mps 733 mmHg 31%
    16:00 +40°C° 0 mm 4 mps 732 mmHg 31%
    17:00 +40°C° 0 mm 4 mps 732 mmHg 30%
    18:00 +38°C° 0.8 mm 4 mps 732 mmHg 33%
    19:00 +37°C° 0.8 mm 4 mps 732 mmHg 35%
    20:00 +35°C° 0.8 mm 4 mps 732 mmHg 38%
    21:00 +35°C° 0.4 mm 4 mps 732 mmHg 40%
    22:00 +34°C° 0.4 mm 3 mps 732 mmHg 41%
    23:00 +33°C° 0.4 mm 3 mps 732 mmHg 43%

    Day after tomorrow, 7 June, Sunday

    Time Temperature Precipitation Wind Pressure Humidity
    00:00 +33°C° 0.2 mm 3 mps 732 mmHg 44%
    01:00 +33°C° 0.2 mm 3 mps 732 mmHg 45%
    02:00 +31°C° 0.2 mm 3 mps 732 mmHg 47%
    03:00 +31°C° 0.1 mm 3 mps 732 mmHg 48%
    04:00 +31°C° 0.1 mm 3 mps 732 mmHg 49%
    05:00 +30°C° 0.1 mm 2 mps 733 mmHg 50%
    06:00 +32°C° 0.4 mm 2 mps 733 mmHg 47%
    07:00 +34°C° 0.4 mm 2 mps 734 mmHg 44%
    08:00 +35°C° 0.4 mm 2 mps 734 mmHg 41%
    09:00 +37°C° 0 mm 2 mps 734 mmHg 37%
    10:00 +38°C° 0 mm 2 mps 734 mmHg 34%
    11:00 +40°C° 0 mm 1 mps 734 mmHg 30%
    12:00 +41°C° 0 mm 1 mps 733 mmHg 28%
    13:00 +42°C° 0 mm 1 mps 733 mmHg 25%
    14:00 +43°C° 0 mm 1 mps 732 mmHg 22%
    15:00 +43°C° 0 mm 1 mps 732 mmHg 22%
    16:00 +43°C° 0 mm 1 mps 731 mmHg 22%
    17:00 +42°C° 0 mm 1 mps 731 mmHg 21%
    18:00 +42°C° 0 mm 1 mps 731 mmHg 23%
    19:00 +41°C° 0 mm 2 mps 731 mmHg 24%
    20:00 +40°C° 0 mm 2 mps 731 mmHg 25%
    21:00 +39°C° 0 mm 2 mps 731 mmHg 27%
    22:00 +39°C° 0 mm 2 mps 731 mmHg 29%
    23:00 +38°C° 0 mm 2 mps 731 mmHg 31%

    8 June, Monday

    Time Temperature Precipitation Wind Pressure Humidity
    00:00 +37°C° 0 mm 2 mps 731 mmHg 32%
    01:00 +37°C° 0 mm 2 mps 731 mmHg 34%
    02:00 +36°C° 0 mm 2 mps 731 mmHg 35%
    03:00 +35°C° 0 mm 2 mps 731 mmHg 36%
    04:00 +35°C° 0 mm 2 mps 731 mmHg 38%
    05:00 +34°C° 0 mm 1 mps 731 mmHg 39%
    06:00 +36°C° 0 mm 2 mps 731 mmHg 36%
    07:00 +38°C° 0 mm 2 mps 732 mmHg 33%
    08:00 +39°C° 0 mm 2 mps 732 mmHg 30%
    09:00 +41°C° 0 mm 2 mps 732 mmHg 27%
    10:00 +42°C° 0 mm 2 mps 732 mmHg 25%
    11:00 +43°C° 0 mm 2 mps 732 mmHg 22%
    12:00 +45°C° 0 mm 2 mps 732 mmHg 21%
    13:00 +45°C° 0 mm 2 mps 731 mmHg 20%
    14:00 +44°C° 0 mm 1 mps 731 mmHg 19%
    15:00 +44°C° 0 mm 1 mps 730 mmHg 19%
    16:00 +44°C° 0 mm 1 mps 730 mmHg 19%
    17:00 +44°C° 0 mm 1 mps 729 mmHg 18%
    18:00 +43°C° 0 mm 1 mps 730 mmHg 20%
    19:00 +42°C° 0 mm 2 mps 730 mmHg 21%
    20:00 +41°C° 0 mm 2 mps 730 mmHg 22%
    21:00 +41°C° 0 mm 2 mps 730 mmHg 23%
    22:00 +40°C° 0 mm 2 mps 730 mmHg 24%
    23:00 +39°C° 0 mm 2 mps 730 mmHg 26%

    9 June, Tuesday

    Time Temperature Precipitation Wind Pressure Humidity
    00:00 +39°C° 0 mm 2 mps 730 mmHg 27%
    01:00 +38°C° 0 mm 2 mps 730 mmHg 28%
    02:00 +37°C° 0 mm 2 mps 730 mmHg 29%
    03:00 +37°C° 0 mm 2 mps 730 mmHg 31%
    04:00 +36°C° 0 mm 2 mps 730 mmHg 32%
    05:00 +36°C° 0 mm 2 mps 730 mmHg 33%
    06:00 +38°C° 0 mm 3 mps 730 mmHg 30%
    07:00 +41°C° 0 mm 4 mps 731 mmHg 27%
    08:00 +42°C° 0 mm 5 mps 731 mmHg 24%
    09:00 +44°C° 0 mm 4 mps 731 mmHg 22%
    10:00 +45°C° 0 mm 4 mps 731 mmHg 20%
    11:00 +46°C° 0 mm 3 mps 731 mmHg 19%
    12:00 +47°C° 0 mm 3 mps 731 mmHg 18%
    13:00 +47°C° 0 mm 3 mps 730 mmHg 17%
    14:00 +48°C° 0 mm 3 mps 730 mmHg 16%
    15:00 +44°C° 1.1 mm 6 mps 730 mmHg 26%
    16:00 +38°C° 1.1 mm 8 mps 729 mmHg 36%
    17:00 +32°C° 1.1 mm 11 mps 729 mmHg 46%
    18:00 +33°C° 0.7 mm 10 mps 729 mmHg 45%
    19:00 +34°C° 0.7 mm 9 mps 730 mmHg 44%
    20:00 +34°C° 0.7 mm 7 mps 730 mmHg 44%
    21:00 +35°C° 0.1 mm 6 mps 730 mmHg 41%
    22:00 +35°C° 0.1 mm 4 mps 730 mmHg 39%
    23:00 +35°C° 0.1 mm 2 mps 730 mmHg 37%

    10 June, Wednesday

    Time Temperature Precipitation Wind Pressure Humidity
    00:00 +35°C° 0 mm 2 mps 730 mmHg 37%
    01:00 +34°C° 0 mm 1 mps 730 mmHg 38%
    02:00 +34°C° 0 mm 1 mps 730 mmHg 38%
    03:00 +34°C° 0 mm 1 mps 730 mmHg 39%
    04:00 +33°C° 0 mm 1 mps 730 mmHg 40%
    05:00 +34°C° 0 mm 2 mps 730 mmHg 41%
    06:00 +35°C° 0 mm 2 mps 730 mmHg 37%
    07:00 +37°C° 0 mm 2 mps 731 mmHg 34%
    08:00 +39°C° 0 mm 2 mps 731 mmHg 30%
    09:00 +40°C° 0 mm 2 mps 731 mmHg 29%
    10:00 +41°C° 0 mm 2 mps 731 mmHg 27%
    11:00 +42°C° 0 mm 2 mps 731 mmHg 26%
    12:00 +44°C° 0 mm 1 mps 731 mmHg 24%
    13:00 +45°C° 0 mm 1 mps 731 mmHg 22%
    14:00 +46°C° 0 mm 1 mps 730 mmHg 20%
    15:00 +45°C° 0.2 mm 4 mps 729 mmHg 26%
    16:00 +42°C° 0.2 mm 6 mps 729 mmHg 32%
    17:00 +39°C° 0.2 mm 8 mps 728 mmHg 38%
    18:00 +40°C° 0.2 mm 6 mps 728 mmHg 35%
    19:00 +40°C° 0.2 mm 5 mps 729 mmHg 32%
    20:00 +39°C° 0.2 mm 3 mps 729 mmHg 29%
    21:00 +39°C° 0.3 mm 3 mps 729 mmHg 32%
    22:00 +38°C° 0.3 mm 2 mps 729 mmHg 34%
    23:00 +38°C° 0.3 mm 2 mps 729 mmHg 36%
    Show more